Regional Weather Roundup
Issued by NWS

Home | Current Version | Previous Version | Text Only | Print | Product List | Glossary On
Versions: 1 2 3 4 5 6 7 8 9 10 11 12 13 14 15 16 17 18 19 20 21 22 23 24 25 26 27 28 29 30 31 32 33 34 35 36 37 38 39 40 41 42 43 44 45 46 47 48 49 50
000
ASUS43 KLMK 260302
RWRKY
KENTUCKY REGIONAL WEATHER ROUNDUP
NATIONAL WEATHER SERVICE LOUISVILLE KY
1100 PM EDT WED MAY 25 2016

NOTE "FAIR" INDICATES FEW OR NO CLOUDS BELOW 12,000 FEET
WITH NO SIGNIFICANT WEATHER AND/OR OBSTRUCTIONS TO VISIBILITY.

KYZ001>023-026-027-061>063-070>075-260400-
WESTERN AND SOUTH CENTRAL KENTUCKY

CITY           SKY/WX    TMP DP  RH WIND       PRES   REMARKS
PADUCAH        CLOUDY    69  64  84 VRB5      30.05R
HENDERSON      CLOUDY    70  63  78 S13       30.04R
OWENSBORO      CLOUDY    69  65  87 S13       30.05R
HOPKINSVILLE   CLOUDY    66  66 100 SE5       30.08R
BOWLING GREEN  CLOUDY    67  65  93 S3        30.08F
GLASGOW        NOT AVBL
$$

KYZ024-025-028>034-038-045-046-053-260400-
NORTH CENTRAL KENTUCKY

CITY           SKY/WX    TMP DP  RH WIND       PRES   REMARKS
LOUISVILLE/SDF CLOUDY    72  61  68 S9        30.06F
LOUISVILLE/LOU CLOUDY    72  61  68 S5        30.07S
FORT KNOX      CLOUDY    68  62  79 SE5       30.04F
$$

KYZ035>037-039>044-047>052-055>060-089>105-260400-
NORTHEAST KENTUCKY

CITY           SKY/WX    TMP DP  RH WIND       PRES   REMARKS
LEXINGTON      MOCLDY    70  62  76 SW7       30.11S
COVINGTON      CLOUDY    71  63  75 S6        30.08R
FRANKFORT      CLOUDY    71  62  73 S9        30.09R
$$

KYZ054-064>069-076>088-106>120-260400-
SOUTHEAST KENTUCKY

CITY           SKY/WX    TMP DP  RH WIND       PRES   REMARKS
JACKSON        PTCLDY    71  60  68 CALM      30.15S
LONDON         MOCLDY    72  63  73 SW3       30.14S
SOMERSET       NOT AVBL
MIDDLESBORO    NOT AVBL
MONTICELLO     CLOUDY    67  65  93 E7        30.13F
$$




USA.gov is the U.S. government's official web portal to all federal, state and local government web resources and services.